Stations météo

Publicité
Dijon, France (7280): Température de l'air & dewpoint: 20.09.2017 12:00:00 - 26.09.2017 12:00:00 (CEST)Dijon, France (7280): Température de l'air 5cm: 20.09.2017 12:00:00 - 26.09.2017 12:00:00 (CEST)Dijon, France (7280): Température de l'air -20cm & Température de l'air -100cm: 20.09.2017 12:00:00 - 26.09.2017 12:00:00 (CEST)Dijon, France (7280): Vitesse du vent & gusts: 20.09.2017 12:00:00 - 26.09.2017 12:00:00 (CEST)Dijon, France (7280): Direction du vent: 20.09.2017 12:00:00 - 26.09.2017 12:00:00 (CEST)Dijon, France (7280): reduced air pressure: 20.09.2017 12:00:00 - 26.09.2017 12:00:00 (CEST)Dijon, France (7280): visibility: 20.09.2017 12:00:00 - 26.09.2017 12:00:00 (CEST)Dijon, France (7280): Ensoleillement: 20.09.2017 12:00:00 - 26.09.2017 12:00:00 (CEST)Dijon, France (7280): Quantités de précipitations: 20.09.2017 12:00:00 - 26.09.2017 12:00:00 (CEST)
Date & Time tt [°C] td [°C] tt 5cm [°C] tt -20cm [°C] tt -100cm [°C] ff [km/h] ff [knt] fx [km/h] fx [knt] dd ppp [hPa] vv [km] sd [min] rr [mm]
26.09.2017 12:00:00 16,4 15,3 16,2 16,0 16,9 2 1 7 4 SW 1020,9 15 0 0,0
26.09.2017 11:00:00 15,2 14,7 15,2 16,1 16,9 2 1 5 3 SSE 1021,0 6 0 0,2
26.09.2017 10:00:00 14,6 14,3 14,8 16,1 16,9 5 3 8 5 SE 1020,9 2,2 0 1,6
26.09.2017 09:00:00 14,4 14,1 14,5 16,1 16,9 2 1 5 3 SSE 1020,6 3,5 0 0,2
26.09.2017 08:00:00 14,2 13,9 14,5 16,1 16,9 5 3 7 4 SE 1020,3 2,5 0 0,4
26.09.2017 07:00:00 14,4 14,1 14,7 16,1 16,9 0 0 5 3 N 1020,0 1,3 0 0,8
26.09.2017 06:00:00 14,2 13,9 14,4 16,2 16,9 0 0 4 2 N 1019,9 4,1 0 0,0
26.09.2017 05:00:00 13,7 13,4 13,7 16,2 16,9 0 0 4 2 N 1020,0 2,3 0 0,0
26.09.2017 04:00:00 13,5 13,0 13,8 16,2 16,9 0 0 5 3 N 1019,8 3,8 0 0,2
26.09.2017 03:00:00 13,5 13,0 13,7 16,2 16,9 3 2 8 4 SE 1019,9 3,7 0 0,0
26.09.2017 02:00:00 13,7 13,1 13,8 16,2 16,9 5 3 10 5 SSE 1019,9 4,2 0 0,0
26.09.2017 01:00:00 14,9 13,8 14,3 16,2 16,9 0 0 9 5 N 1019,8 7 0 0,0
26.09.2017 00:00:00 15,4 13,9 14,9 16,2 16,9 6 3 8 4 N 1019,8 8 0 0,0
25.09.2017 23:00:00 15,3 14,2 15,0 16,2 16,9 4 2 7 4 NNW 1019,9 9 0 0,0
25.09.2017 22:00:00 15,4 13,9 14,9 16,2 16,9 6 3 9 5 WNW 1019,8 13 0 0,6
25.09.2017 21:00:00 16,0 13,8 15,2 16,1 16,9 6 3 11 6 ESE 1019,7 8 0 0,8
25.09.2017 20:00:00 17,2 11,5 15,9 16,0 16,9 9 5 12 6 SE 1019,2 28 0 0,0
25.09.2017 19:00:00 18,8 11,4 17,6 16,0 16,9 6 3 14 8 SSE 1018,6 32 0 0,0
25.09.2017 18:00:00 19,5 11,0 18,9 15,9 16,9 11 6 16 8 SSE 1018,1 35 0 0,0
25.09.2017 17:00:00 19,9 11,4 20,3 15,8 16,9 9 5 17 9 SSE 1018,0 29 26 0,0
25.09.2017 16:00:00 19,8 11,8 19,8 15,7 16,9 9 5 15 8 SSE 1018,1 34 10 0,0
25.09.2017 15:00:00 18,7 11,3 19,1 15,7 16,9 5 3 10 5 SE 1018,3 25 5 0,0
25.09.2017 14:00:00 18,4 11,0 18,8 15,7 16,9 2 1 8 4 SE 1018,6 20 0 0,0
25.09.2017 13:00:00 17,9 11,2 18,2 15,7 16,9 4 2 10 5 ESE 1018,7 19 10 0,0
25.09.2017 12:00:00 16,7 11,0 16,6 15,7 16,9 4 2 10 5 NNE 1019,0 18 3 0,0
25.09.2017 11:00:00 15,2 10,6 15,5 15,8 16,9 6 3 11 6 NE 1019,1 15 16 0,0
25.09.2017 10:00:00 13,8 10,6 13,5 15,9 16,9 7 4 18 10 NNE 1019,1 12 20 0,0
25.09.2017 09:00:00 13,2 10,2 10,4 15,9 16,9 13 7 19 10 NNE 1018,9 14 56 0,0
25.09.2017 08:00:00 10,4 8,7 9,4 16,0 16,9 6 3 9 5 NNW 1019,4 15 13 0,0
25.09.2017 07:00:00 9,2 7,6 9,3 16,1 16,9 8 5 11 6 NNW 1019,3 15 0 0,0
25.09.2017 06:00:00 9,6 7,7 9,5 16,2 16,9 6 4 11 6 NNW 1019,3 20 0 0,0
25.09.2017 05:00:00 9,8 7,9 9,5 16,3 16,9 8 4 11 6 NW 1019,6 21 0 0,0
25.09.2017 04:00:00 10,1 8,2 10,1 16,4 16,9 9 5 12 6 NW 1019,6 22 0 0,0
25.09.2017 03:00:00 10,7 8,3 10,4 16,4 16,9 9 5 12 7 NNW 1019,8 24 0 0,0
25.09.2017 02:00:00 12,3 9,1 10,3 16,5 16,9 7 4 15 8 NW 1019,8 28 0 0,0
25.09.2017 01:00:00 12,7 9,0 11,1 16,5 16,9 8 5 11 6 N 1020,0 28 0 0,0
25.09.2017 00:00:00 12,4 9,2 11,2 16,6 16,9 9 5 10 6 NW 1020,4 25 0 0,0
24.09.2017 23:00:00 14,2 10,0 11,5 16,5 16,9 8 4 9 5 NW 1020,4 28 0 0,0
24.09.2017 22:00:00 15,0 9,6 11,5 16,5 16,9 4 2 7 4 N 1020,1 33 0 0,0
24.09.2017 21:00:00 15,4 9,3 11,8 16,5 16,9 0 0 4 2 N 1020,1 39 0 0,0
24.09.2017 20:00:00 17,1 9,3 13,3 16,4 16,9 4 2 13 7 E 1019,7 38 8 0,0
24.09.2017 19:00:00 19,6 10,0 17,7 16,2 16,9 10 5 16 9 E 1019,2 40 60 0,0
24.09.2017 18:00:00 22,2 9,0 21,0 16,1 16,9 6 3 16 9 E 1019,0 47 60 0,0
24.09.2017 17:00:00 23,5 8,7 22,6 15,9 16,9 3 2 11 6 SSE 1019,0 43 60 0,0
24.09.2017 16:00:00 22,5 9,6 23,2 15,8 16,9 9 5 31 17 ENE 1019,4 35 60 0,0
24.09.2017 15:00:00 22,6 9,0 24,2 15,7 16,9 7 4 17 9 NNW 1019,6 20 60 0,0
24.09.2017 14:00:00 21,6 11,0 25,0 15,6 16,9 4 2 16 9 E 1020,0 20 60 0,0
24.09.2017 13:00:00 20,8 10,6 24,3 15,5 16,9 7 4 14 8 E 1020,3 20 60 0,0
24.09.2017 12:00:00 19,3 13,0 19,6 15,5 16,9 6 3 11 6 NNE 1020,7 22 60 0,0
24.09.2017 11:00:00 17,6 11,6 17,7 15,6 16,9 5 3 11 6 NNE 1021,1 21 60 0,0
24.09.2017 10:00:00 15,4 11,6 13,6 15,6 16,9 5 3 14 8 N 1021,3 34 60 0,0
24.09.2017 09:00:00 13,1 11,0 11,4 15,7 16,9 4 2 9 5 NNW 1021,2 24 27 0,0
24.09.2017 08:00:00 11,1 9,2 10,4 15,7 16,9 7 4 8 5 NNW 1021,1 24 2 0,0
24.09.2017 07:00:00 11,5 9,6 11,6 15,8 16,9 6 4 11 6 NNW 1020,7 26 0 0,0
24.09.2017 06:00:00 11,9 9,5 11,5 15,9 17,0 6 3 11 6 NNW 1020,5 29 0 0,0
24.09.2017 05:00:00 12,1 9,7 11,7 15,9 16,9 8 5 12 7 NW 1020,6 34 0 0,0
24.09.2017 04:00:00 12,0 9,7 11,7 15,9 17,0 8 4 15 8 NNW 1020,7 30 0 0,0
24.09.2017 03:00:00 12,3 9,8 11,8 16,0 16,9 10 5 12 6 NNW 1020,5 27 0 0,0
24.09.2017 02:00:00 12,6 9,8 12,0 16,0 17,0 9 5 11 6 NNW 1020,8 28 0 0,0
24.09.2017 01:00:00 13,6 10,0 12,3 16,0 17,0 6 3 8 5 NNW 1020,8 29 0 0,0
24.09.2017 00:00:00 13,8 10,4 12,0 16,0 16,9 7 4 9 5 NNW 1020,7 28 0 0,0
23.09.2017 23:00:00 14,3 10,3 12,4 16,0 17,0 6 4 8 5 NNW 1020,7 29 0 0,0
23.09.2017 22:00:00 14,3 10,1 11,5 16,0 17,0 8 4 13 7 NNW 1020,7 28 0 0,0
23.09.2017 21:00:00 15,2 10,4 11,9 15,9 17,0 3 1 8 5 NNW 1020,5 27 0 0,0
23.09.2017 20:00:00 16,4 10,0 13,1 15,9 17,0 2 1 8 5 SE 1020,2 34 7 0,0
23.09.2017 19:00:00 18,8 10,4 16,8 15,7 17,0 8 5 11 6 E 1019,9 43 35 0,0
23.09.2017 18:00:00 21,2 9,4 19,3 15,5 17,0 8 4 17 9 NE 1019,7 43 19 0,0
23.09.2017 17:00:00 21,5 8,4 20,4 15,4 17,0 3 2 11 6 ESE 1019,7 46 49 0,0
23.09.2017 16:00:00 21,9 9,1 22,4 15,3 17,0 3 2 13 7 E 1020,3 60 60 0,0
23.09.2017 15:00:00 21,7 9,6 20,7 15,2 17,0 6 4 13 7 ENE 1020,8 36 38 0,0
23.09.2017 14:00:00 20,7 10,2 21,9 15,1 17,0 5 3 14 8 N 1021,2 46 55 0,0
23.09.2017 13:00:00 20,2 11,7 22,1 15,1 17,0 5 3 16 8 NE 1021,3 35 60 0,0
23.09.2017 12:00:00 18,5 11,1 19,2 15,1 17,0 8 4 14 8 NNE 1022,1 31 60 0,0
23.09.2017 11:00:00 16,8 10,6 16,5 15,2 17,0 7 4 15 8 NE 1022,7 27 60 0,0
23.09.2017 10:00:00 15,3 10,3 13,1 15,2 17,0 12 7 18 10 NNE 1022,8 22 60 0,0
23.09.2017 09:00:00 12,3 9,8 9,8 15,3 17,0 9 5 12 7 NNW 1022,9 18 60 0,0
23.09.2017 08:00:00 9,9 8,3 8,5 15,4 17,0 9 5 11 6 NNW 1023,0 16 10 0,0
23.09.2017 07:00:00 10,0 8,4 8,5 15,4 17,0 6 3 9 5 NW 1022,9 21 0 0,0
23.09.2017 06:00:00 10,7 9,0 9,7 15,5 17,1 7 4 11 6 NW 1023,0 24 0 0,0
23.09.2017 05:00:00 10,9 9,0 10,3 15,5 17,0 8 5 10 6 NNW 1022,9 30 0 0,0
23.09.2017 04:00:00 11,8 9,4 11,1 15,5 17,0 9 5 12 7 NNW 1023,1 30 0 0,0
23.09.2017 03:00:00 12,7 9,7 10,3 15,6 17,0 6 3 10 5 NNW 1023,2 32 0 0,0
23.09.2017 02:00:00 12,4 9,6 10,8 15,6 17,0 6 4 13 7 NNW 1023,4 33 0 0,0
23.09.2017 01:00:00 13,0 9,6 11,7 15,6 17,1 10 6 13 7 NNW 1023,0 33 0 0,0
23.09.2017 00:00:00 13,7 9,7 12,5 15,6 17,1 9 5 16 9 NW 1023,3 37 0 0,0
22.09.2017 23:00:00 14,7 9,9 12,9 15,5 17,1 10 5 22 12 NNW 1022,9 35 0 0,0
22.09.2017 22:00:00 16,1 9,7 12,0 15,5 17,1 17 9 22 12 NW 1022,1 39 0 0,0
22.09.2017 21:00:00 16,1 9,7 12,3 15,4 17,1 6 4 9 5 NW 1022,0 37 0 0,0
22.09.2017 20:00:00 18,6 10,4 14,4 15,3 17,1 6 3 12 7 N 1021,2 40 19 0,0
22.09.2017 19:00:00 21,3 10,5 18,2 15,1 17,1 2 1 11 6 SSE 1020,5 17 46 0,0
22.09.2017 18:00:00 22,3 10,1 21,8 14,9 17,1 7 4 13 7 S 1020,1 20 60 0,0
22.09.2017 17:00:00 22,4 10,5 22,3 14,8 17,1 0 0 11 6 N 1020,1 45 60 0,0
22.09.2017 16:00:00 22,3 10,1 22,6 14,6 17,1 4 2 12 6 SSE 1020,3 20 60 0,0
22.09.2017 15:00:00 21,8 9,7 22,4 14,5 17,1 3 2 13 7 SW 1020,4 41 58 0,0
22.09.2017 14:00:00 21,0 9,3 21,6 14,5 17,1 4 2 13 7 ESE 1020,8 41 57 0,0
22.09.2017 13:00:00 19,7 9,3 23,4 14,5 17,1 6 4 13 7 SSE 1021,1 35 60 0,0
22.09.2017 12:00:00 17,3 10,2 16,1 14,5 17,1 5 3 10 5 SSE 1021,4 36 58 0,0
22.09.2017 11:00:00 13,9 8,7 13,5 14,6 17,1 2 1 6 3 S 1021,8 28 57 0,0
22.09.2017 10:00:00 12,2 8,3 11,0 14,6 17,1 0 0 5 3 N 1021,9 29 60 0,0
22.09.2017 09:00:00 8,9 7,2 6,9 14,8 17,1 4 2 6 3 SSE 1021,8 31 38 0,0
22.09.2017 08:00:00 6,3 5,4 6,4 14,8 17,1 3 2 4 2 N 1021,7 13 1 0,0
22.09.2017 07:00:00 6,8 5,7 6,6 15,0 17,2 5 3 7 4 NNW 1021,1 28 0 0,0
22.09.2017 06:00:00 6,6 5,9 5,5 15,1 17,1 6 3 7 4 NNW 1021,1 21 0 0,0
22.09.2017 05:00:00 6,4 5,7 5,7 15,2 17,1 5 3 9 5 NW 1021,3 12 0 0,0
22.09.2017 04:00:00 6,6 5,9 5,7 15,3 17,2 0 0 4 2 N 1020,8 2,8 0 0,0
22.09.2017 03:00:00 7,3 5,9 6,1 15,3 17,2 0 0 6 3 N 1020,9 15 0 0,0
22.09.2017 02:00:00 9,5 7,1 6,8 15,4 17,2 5 3 7 4 N 1020,5 21 0 0,0
22.09.2017 01:00:00 8,8 6,8 7,4 15,4 17,2 5 3 9 5 NW 1020,5 38 0 0,0
22.09.2017 00:00:00 9,9 7,0 7,9 15,5 17,2 7 4 9 5 NW 1020,2 33 0 0,0
21.09.2017 23:00:00 10,6 7,5 8,1 15,5 17,2 5 3 8 4 NW 1020,0 28 0 0,0
21.09.2017 22:00:00 11,2 7,7 8,8 15,4 17,2 4 2 8 4 WNW 1019,7 49 0 0,0
21.09.2017 21:00:00 12,6 7,7 9,6 15,3 17,2 5 3 9 5 WSW 1019,5 26 0 0,0
21.09.2017 20:00:00 15,3 7,1 11,8 15,2 17,2 8 4 10 5 ESE 1018,7 20 8 0,0
21.09.2017 19:00:00 19,0 5,4 16,4 15,1 17,2 4 2 9 5 SE 1018,1 58 60 0,0
21.09.2017 18:00:00 19,5 6,2 19,0 14,9 17,2 6 3 10 5 E 1017,9 52 60 0,0
21.09.2017 17:00:00 20,1 5,7 21,0 14,7 17,2 3 2 13 7 SE 1017,9 49 60 0,0
21.09.2017 16:00:00 19,2 7,9 20,8 14,6 17,2 4 2 11 6 ESE 1018,3 45 60 0,0
21.09.2017 15:00:00 19,2 8,5 21,5 14,5 17,2 3 1 17 9 S 1018,6 19 60 0,0
21.09.2017 14:00:00 17,5 8,1 21,9 14,4 17,2 7 4 14 8 NE 1019,2 35 60 0,0
21.09.2017 13:00:00 16,4 9,6 21,0 14,4 17,2 4 2 10 6 E 1019,8 25 60 0,0
21.09.2017 12:00:00 14,7 8,9 16,8 14,5 17,2 3 1 13 7 ENE 1020,2 19 60 0,0
21.09.2017 11:00:00 12,7 8,6 13,9 14,5 17,2 6 4 17 9 ENE 1020,9 14 60 0,0
21.09.2017 10:00:00 10,9 7,9 10,8 14,6 17,3 10 5 15 8 N 1021,1 9 60 0,0
21.09.2017 09:00:00 9,6 7,7 7,0 14,7 17,3 11 6 15 8 N 1021,0 8 60 0,0
21.09.2017 08:00:00 6,1 5,5 6,3 14,8 17,3 9 5 16 8 NNW 1021,2 12 16 0,0
21.09.2017 07:00:00 6,1 5,4 6,0 14,8 17,3 7 4 11 6 NNW 1021,4 18 0 0,0
21.09.2017 06:00:00 6,1 5,5 5,9 15,0 17,3 6 3 11 6 NNW 1021,4 12 0 0,0
21.09.2017 05:00:00 6,8 5,9 7,0 15,0 17,3 6 3 13 7 N 1021,5 14 0 0,0
21.09.2017 04:00:00 6,6 5,9 7,1 15,1 17,3 10 5 12 7 NW 1022,0 24 0 0,0
21.09.2017 03:00:00 7,3 6,4 7,6 15,2 17,3 9 5 11 6 NNW 1022,2 23 0 0,0
21.09.2017 02:00:00 7,8 6,7 8,0 15,2 17,3 10 5 11 6 NNW 1022,3 20 0 0,0
21.09.2017 01:00:00 8,3 7,2 8,4 15,3 17,3 8 5 10 6 NNW 1022,4 20 0 0,0
21.09.2017 00:00:00 9,5 8,1 8,1 15,3 17,3 7 4 9 5 NNW 1022,4 21 0 0,0
20.09.2017 23:00:00 10,1 8,4 7,7 15,3 17,3 6 3 8 4 NNW 1022,5 31 0 0,0
20.09.2017 22:00:00 11,2 8,4 8,2 15,3 17,3 4 2 8 4 NNE 1022,3 37 0 0,0
20.09.2017 21:00:00 11,3 8,0 9,2 15,2 17,3 5 3 5 3 NNW 1022,3 50 0 0,0
20.09.2017 20:00:00 13,7 7,9 11,0 15,1 17,3 5 3 9 5 N 1022,1 60 11 0,0
20.09.2017 19:00:00 15,9 7,6 14,3 15,1 17,3 8 4 13 7 NE 1021,9 60 37 0,0
20.09.2017 18:00:00 16,7 6,8 14,6 15,0 17,4 2 1 14 8 E 1021,7 60 21 0,0
20.09.2017 17:00:00 16,3 8,8 16,2 14,9 17,4 6 4 16 9 NE 1022,0 56 13 0,0
20.09.2017 16:00:00 17,5 8,4 15,8 14,8 17,4 6 4 20 11 E 1022,2 2,7 33 0,0
20.09.2017 15:00:00 16,1 8,6 17,3 14,7 17,4 10 5 18 10 NNE 1022,8 52 13 0,0
20.09.2017 14:00:00 16,2 9,1 18,1 14,6 17,4 7 4 15 8 ENE 1023,2 40 10 0,0
20.09.2017 13:00:00 16,4 9,6 20,3 14,6 17,4 9 5 18 10 NE 1023,4 48 60 0,0
20.09.2017 12:00:00 14,9 9,9 15,6 14,6 17,4 7 4 13 7 E 1024,0 39 34 0,0

tt = Température de l'air
td = dewpoint
tt 5cm = Température de l'air 5cm
tt -20cm = Température de l'air -20cm
tt -100cm = Température de l'air -100cm
ff = Vitesse du vent
fx = gusts
dd = Direction du vent
ppp = reduced air pressure
vv = visibility
sd = Ensoleillement
rr = Quantités de précipitations

stations d'obs. à proximité